﻿Title,Size,Modified,Version,Workflow,Author
20120306 Protokoll Mumblemeeting,54 KB,13 March 2013 21:03,1.0,Approved,COBRA
20120515 Protokoll Mumblemeeting,304 KB,20 December 2012 13:36,1.0,Approved,COBRA
20120528 Protokoll Mumblemeeting,39.3 KB,20 December 2012 13:53,2.0,Approved,COBRA
20120626 Protokoll Mumblemeeting,67.6 KB,20 December 2012 13:36,1.0,Approved,COBRA
20120905 Protokoll Mumblemeeting,27.3 KB,20 December 2012 13:53,1.0,Approved,COBRA
20121003 Protokoll Mumblemeeting,35.9 KB,20 December 2012 13:53,1.0,Approved,COBRA
20121024 Protokoll Mumblemeeting,37.2 KB,20 December 2012 13:53,1.0,Approved,COBRA
20121031 Finance,1.17 MB,20 December 2012 13:36,1.0,Approved,COBRA
20121031 Protokoll Stammtisch,89.8 KB,20 December 2012 13:36,1.0,Approved,COBRA
20121114 Protokoll Mumblemeeting,32.6 KB,20 December 2012 13:53,1.0,Approved,COBRA
20121121 Protokoll Mumblemeeting,38.7 KB,20 December 2012 13:53,1.0,Approved,COBRA
20121205 Protokoll Mumblemeeting,36.9 KB,20 December 2012 13:53,1.0,Approved,COBRA
20121219 Protokoll Mumblemeeting,50.8 KB,09 January 2013 21:59,1.0,Approved,COBRA
20130109 Protokoll Mumblemeeting,49.5 KB,16 January 2013 22:37,1.0,Approved,COBRA
20130116 Protokoll Mumblemeeting,52.4 KB,23 January 2013 21:01,1.0,Approved,COBRA
20130123 Protokoll Mumblemeeting,53.5 KB,07 February 2013 07:04,1.0,Approved,COBRA
20130206 Protokoll Mumblemeeting,51.3 KB,20 February 2013 20:01,1.0,Approved,COBRA
20130213 Protokoll Mumblemeeting,53.1 KB,20 February 2013 21:43,1.0,Approved,COBRA
20130220 Protokoll Mumblemeeting,50.8 KB,13 March 2013 21:03,1.0,Approved,COBRA
20130313 Protokoll Mumblemeeting,48.7 KB,05 June 2013 21:08,1.0,Approved,COBRA
20130320 Protokoll Mumblemeeting,50.3 KB,05 June 2013 21:08,1.0,Approved,COBRA
20130403 Protokoll Mumblemeeting,13 KB,05 June 2013 21:08,1.0,Approved,COBRA
20130410 Protokoll Mumblemeeting,54.2 KB,05 June 2013 21:08,1.0,Approved,COBRA
20130417 Protokoll Mumblemeeting,54.9 KB,05 June 2013 21:08,1.0,Approved,COBRA
20130501 Protokoll Mumblemeeting,35.2 KB,05 June 2013 21:08,1.0,Approved,COBRA
20130508 Protokoll Mumblemeeting,27.1 KB,05 June 2013 21:08,1.0,Approved,COBRA
20130515 Protokoll Mumblemeeting,48.4 KB,05 June 2013 21:08,1.0,Approved,COBRA
20130612 Protokoll Mumblemeeting,11.2 KB,03 March 2014 11:41,1.0,Approved,sinnfrei
20130619 Protokoll Mumblemeeting,60 KB,03 March 2014 11:41,1.0,Approved,sinnfrei
20130708 Protokoll Mumblemeeting,54.8 KB,03 March 2014 11:41,1.0,Approved,sinnfrei
20130715 Protokoll Mumblemeeting,55.5 KB,03 March 2014 11:41,1.0,Approved,sinnfrei
20130812 Protokoll Mumblemeeting,45.2 KB,03 March 2014 11:41,1.0,Approved,sinnfrei
20130819 Protokoll Mumblemeeting,45.2 KB,03 March 2014 11:41,1.0,Approved,sinnfrei
20130826 Protokoll Mumblemeeting,40.6 KB,03 March 2014 11:41,1.0,Approved,sinnfrei
20130909 Protokoll Mumblemeeting,60.9 KB,03 March 2014 11:41,1.0,Approved,sinnfrei
20130916 Protokoll Mumblemeeting,48 KB,03 March 2014 11:41,1.0,Approved,sinnfrei
20130923 Protokoll Mumblemeeting,44.5 KB,03 March 2014 11:41,1.0,Approved,sinnfrei
20131007 Protokoll Mumblemeeting,29 KB,03 March 2014 11:41,1.0,Approved,sinnfrei
20131021 Protokoll Mumblemeeting,54.1 KB,03 March 2014 11:41,1.0,Approved,sinnfrei
20131028 Protokoll Mumblemeeting,44.5 KB,03 March 2014 11:41,1.0,Approved,sinnfrei
20131111 Protokoll Mumblemeeting,38.2 KB,03 March 2014 11:41,1.0,Approved,sinnfrei
20131125 Protokoll Mumblemeeting,42.6 KB,03 March 2014 11:41,1.0,Approved,sinnfrei
20131209 Protokoll Mumblemeeting,44.8 KB,03 March 2014 11:41,1.0,Approved,sinnfrei
20131223 Protokoll Mumblemeeting,32.8 KB,03 March 2014 11:41,1.0,Approved,sinnfrei
20140106 Protokoll Mumblemeeting,32.8 KB,03 March 2014 11:41,1.0,Approved,sinnfrei
20140203 Protokoll Mumblemeeting,43.4 KB,03 March 2014 11:41,1.0,Approved,sinnfrei
20140302 Protokoll Mumblemeeting,43.4 KB,20 August 2014 18:12,1.0,"",sinnfrei
20140317 Protokoll Mumblemeeting,48.2 KB,20 August 2014 18:12,1.0,"",sinnfrei
20140331 Protokoll Mumblemeeting,31 KB,20 August 2014 18:12,1.0,"",sinnfrei
20140414 Protokoll Mumblemeeting,45.1 KB,20 August 2014 18:12,1.0,"",sinnfrei
20140707 Protokoll Mumblemeeting,41.1 KB,20 August 2014 18:12,1.0,"",sinnfrei
20140723 Protokoll SitzungFanti,41.8 KB,20 August 2014 18:12,1.0,"",sinnfrei
20140901 Protokoll Mumblemeeting,33.6 KB,09 February 2016 12:28,1.0,"",sinnfrei
20150727-Protokoll Mumblemeeting,36.2 KB,09 February 2016 12:28,1.0,"",sinnfrei
